Satellite: XATCOBEO
Catalog number: 38082
Epoch time:      12082.60459962
Element set:     105
Inclination:      069.4866 deg
RA of node:       152.6899 deg
Eccentricity:    0.0768425
Arg of perigee:   356.6634 deg
Mean anomaly:     002.9502 deg
Mean motion:   14.08364735 rev/day
Decay rate:     3.9992e-04 rev/day^2
Epoch rev:             536
Checksum:              337

/EX
SB KEPS @ AMSAT  $ORB12082.W
Orbital Elements  12082.WEATHER

HR AMSAT ORBITAL ELEMENTS FOR WEATHER SATELLITES
FROM WA5QGD FORT WORTH,TX March 22, 2012
Send SUBSCRIBE KEPS/UNSUBSCRIBE KEPS to majordomo@amsat.org only
BID: ORB12082.W
TO ALL RADIO AMATEURS BT

Satellite: NOAA-10
Catalog number: 16969
Epoch time:      12081.96812665
Element set:    0865
Inclination:      098.5929 deg
RA of node:       112.5383 deg
Eccentricity:    0.0013103
Arg of perigee:   128.0631 deg
Mean anomaly:     232.1734 deg
Mean motion:   14.27535687 rev/day
Decay rate:       1.08e-06 rev/day^2
Epoch rev:           32742
Checksum:              307

Satellite: NOAA-11
Catalog number: 19531
Epoch time:      12081.74379584
Element set:    0860
Inclination:      098.7338 deg
RA of node:       168.7361 deg
Eccentricity:    0.0011873
Arg of perigee:   111.6320 deg
Mean anomaly:     248.6121 deg
Mean motion:   14.14956562 rev/day
Decay rate:      -2.25e-06 rev/day^2
Epoch rev:           21214
Checksum:              295

Satellite: NOAA-12
Catalog number: 21263
Epoch time:      12081.94046719
Element set:    0357
Inclination:      098.7352 deg
RA of node:       103.9902 deg
Eccentricity:    0.0014781
Arg of perigee:   094.3816 deg
Mean anomaly:     265.9053 deg
Mean motion:   14.25484218 rev/day
Decay rate:        7.0e-07 rev/day^2
Epoch rev:           08412
Checksum:              296

Satellite: MET-3/5
Catalog number: 21655
Epoch time:      12082.84928366
Element set:     365
Inclination:      082.5576 deg
RA of node:       213.1667 deg
Eccentricity:    0.0013608
Arg of perigee:   173.0923 deg
Mean anomaly:     187.0392 deg
Mean motion:   13.17038728 rev/day
Decay rate:        5.1e-07 rev/day^2
Epoch rev:           99053
Checksum:              315

Satellite: MET-2/21
Catalog number: 22782
Epoch time:      12082.59926676
Element set:     370
Inclination:      082.5447 deg
RA of node:       101.2184 deg
Eccentricity:    0.0023605
Arg of perigee:   038.7226 deg
Mean anomaly:     321.5615 deg
Mean motion:   13.83677389 rev/day
Decay rate:        4.2e-07 rev/day^2
Epoch rev:           93719
Checksum:              314

Satellite: OKEAN-4
Catalog number: 23317
Epoch time:      12082.84386432
Element set:     837
Inclination:      082.5383 deg
RA of node:       111.9197 deg
Eccentricity:    0.0019693
Arg of perigee:   278.2135 deg
Mean anomaly:     081.6847 deg
Mean motion:   14.83643119 rev/day
Decay rate:       7.04e-06 rev/day^2
Epoch rev:           94200
Checksum:              313

Satellite: NOAA-14
Catalog number: 23455
Epoch time:      12081.93385693
Element set:    0842
Inclination:      098.8281 deg
RA of node:       166.5230 deg
Eccentricity:    0.0008997
Arg of perigee:   203.5603 deg
Mean anomaly:     156.5155 deg
Mean motion:   14.13884181 rev/day
Decay rate:        6.2e-07 rev/day^2
Epoch rev:           88846
Checksum:              327

Satellite: NOAA-15
Catalog number: 25338
Epoch time:      12081.71284845
Element set:    0197
Inclination:      098.6848 deg
RA of node:       069.4733 deg
Eccentricity:    0.0010765
Arg of perigee:   008.3498 deg
Mean anomaly:     351.7839 deg
Mean motion:   14.25043341 rev/day
Decay rate:       1.89e-06 rev/day^2
Epoch rev:           72039
Checksum:              333

Satellite: RESURS
Catalog number: 25394
Epoch time:      12081.93933809
Element set:    0054
Inclination:      098.3154 deg
RA of node:       074.7936 deg
Eccentricity:    0.0002166
Arg of perigee:   116.3202 deg
Mean anomaly:     243.8202 deg
Mean motion:   14.24279024 rev/day
Decay rate:       1.35e-06 rev/day^2
Epoch rev:           71198
Checksum:              284

Satellite: FENGYUN1
Catalog number: 25730
Epoch time:      12082.89259810
Element set:     564
Inclination:      098.8407 deg
RA of node:       043.4086 deg
Eccentricity:    0.0017901
Arg of perigee:   256.3864 deg
Mean anomaly:     103.5306 deg
Mean motion:   14.09332517 rev/day
Decay rate:       7.94e-06 rev/day^2
Epoch rev:           66245
Checksum:              306

Satellite: OKEAN-0
Catalog number: 25860
Epoch time:      12081.97238848
Element set:    0579
Inclination:      097.9256 deg
RA of node:       046.4541 deg
Eccentricity:    0.0001342
Arg of perigee:   101.9261 deg
Mean anomaly:     258.2097 deg
Mean motion:   14.74124355 rev/day
Decay rate:       5.50e-06 rev/day^2
Epoch rev:           68172
Checksum:              308

Satellite: NOAA-16
Catalog number: 26536
Epoch time:      12081.78213103
Element set:    0681
Inclination:      099.1057 deg
RA of node:       122.5140 deg
Eccentricity:    0.0010123
Arg of perigee:   333.4836 deg
Mean anomaly:     026.5793 deg
Mean motion:   14.12715670 rev/day
Decay rate:        1.0e-08 rev/day^2
Epoch rev:           59269
Checksum:              274

